Location: Dehesa de la Cepeda
(40.6574°N, 4.3013°W)
Time: 09:21:49
(UTC+00:00)

USA 245 - Pass Details

Date: 05 July 2020
Orbit: 271 x 1010 km, 97.9° (Epoch: 03 August)

Event Time Altitude Azimuth Distance (km) Brightness Sun altitude
Exits shadow 21:08:29 21° 138° (SE) 1,015 4.0 -12.3°
Maximum altitude 21:10:21 49° 72° (ENE) 617 3.4 -12.6°
Drops below altitude 10° 21:14:09 10° 357° (N) 1,847 6.7 -13.1°
Sets 21:16:37 0° 353° (N) 2,892 7.9 -13.4°
